FW5487 Weather Reports


Display with metric or nautical units.
time (UTC)temp
F
wind
direction
speed
MPH
gust
MPH
rain 1hr
in
rain 24hr
in
rain mn
in
humidity
%
barometer
mb
20260504081704 69 216 11.0 20.0 0.00 0.00 0.00 51 1000.0
20260504060204 70 216 10.0 17.0 0.00 0.00 0.00 48 1000.0
20260504050703 72 212 13.0 18.0 0.00 0.00 0.00 46 1000.0
20260504050203 72 208 14.0 20.0 0.00 0.00 0.00 45 1000.0
20260504045704 72 205 13.0 21.0 0.00 0.00 0.00 45 1000.0
20260504045205 72 209 13.0 18.0 0.00 0.00 0.00 45 1000.0
20260504044704 72 198 13.0 18.0 0.00 0.00 0.00 45 1000.0
20260504044203 72 207 12.0 17.0 0.00 0.00 0.00 45 1000.0
20260504043703 71 205 10.0 15.0 0.00 0.00 0.00 46 1000.0
20260504043204 72 215 9.0 21.0 0.00 0.00 0.00 46 1000.0
20260504042704 72 198 11.0 18.0 0.00 0.00 0.00 45 1000.0
20260504042204 72 211 12.0 18.0 0.00 0.00 0.00 46 1000.0
20260504041704 71 211 10.0 16.0 0.00 0.00 0.00 46 1000.0
20260504040703 72 207 9.0 15.0 0.00 0.00 0.00 45 1000.0
20260504040203 72 205 9.0 14.0 0.00 0.00 0.00 45 1000.0
20260504035704 72 212 10.0 17.0 0.00 0.00 0.00 44 1000.0
20260504035204 72 208 11.0 18.0 0.00 0.00 0.00 44 1000.0
20260504034703 72 206 8.0 16.0 0.00 0.00 0.00 44 1000.0
20260504034203 72 204 9.0 13.0 0.00 0.00 0.00 44 1000.0
20260504033703 72 210 10.0 16.0 0.00 0.00 0.00 44 1000.0
20260504033204 73 197 12.0 15.0 0.00 0.00 0.00 44 1000.0
20260504032703 73 209 10.0 16.0 0.00 0.00 0.00 44 1000.0
20260504032203 73 208 11.0 16.0 0.00 0.00 0.00 44 1000.0
20260504031703 73 214 10.0 15.0 0.00 0.00 0.00 44 1000.0
20260504031203 73 210 11.0 16.0 0.00 0.00 0.00 44 1000.0
20260504030703 73 198 10.0 15.0 0.00 0.00 0.00 44 1000.0
20260504030204 73 207 11.0 15.0 0.00 0.00 0.00 44 1000.0
20260504025703 73 204 9.0 13.0 0.00 0.00 0.00 44 1000.0
20260504025203 73 209 10.0 14.0 0.00 0.00 0.00 44 1000.0
20260504024704 73 206 10.0 14.0 0.00 0.00 0.00 43 1000.0
20260504023204 73 211 9.0 15.0 0.00 0.00 0.00 44 1000.0
20260504022703 73 217 8.0 13.0 0.00 0.00 0.00 44 1000.0
20260504022203 73 210 9.0 13.0 0.00 0.00 0.00 44 1000.0
20260504021704 73 211 10.0 15.0 0.00 0.00 0.00 43 1000.0
20260504021204 73 210 9.0 12.0 0.00 0.00 0.00 43 1000.0
20260504020703 74 208 10.0 13.0 0.00 0.00 0.00 43 1000.0
20260504020203 74 210 9.0 13.0 0.00 0.00 0.00 43 1000.0
20260504015704 74 208 9.0 12.0 0.00 0.00 0.00 43 1000.0
20260504015204 74 215 9.0 13.0 0.00 0.00 0.00 43 1000.0
20260504014204 74 209 8.0 12.0 0.00 0.00 0.00 43 1000.0
20260504013703 74 216 9.0 12.0 0.00 0.00 0.00 42 1000.0
20260504012704 75 221 7.0 10.0 0.00 0.00 0.00 41 1000.0
20260504011704 75 225 9.0 14.0 0.00 0.00 0.00 40 1000.0
20260504011204 76 219 7.0 10.0 0.00 0.00 0.00 39 1000.0
20260504010703 76 228 7.0 12.0 0.00 0.00 0.00 39 1000.0
20260504010203 76 237 6.0 10.0 0.00 0.00 0.00 39 1000.0
20260504005703 76 228 7.0 14.0 0.00 0.00 0.00 38 1000.0
20260504004204 77 222 9.0 14.0 0.00 0.00 0.00 36 1000.0
20260504003204 78 229 7.0 12.0 0.00 0.00 0.00 37 1000.0
20260504002704 78 236 7.0 10.0 0.00 0.00 0.00 37 1000.0
20260504002203 78 235 8.0 15.0 0.00 0.00 0.00 36 1000.0
20260504001704 79 235 7.0 12.0 0.00 0.00 0.00 35 1000.0
20260504001204 79 227 9.0 15.0 0.00 0.00 0.00 34 1000.0
20260504000704 79 233 7.0 15.0 0.00 0.00 0.00 33 1000.0
20260504000204 79 229 9.0 16.0 0.00 0.00 0.00 32 1000.0
20260503235704 80 228 9.0 20.0 0.00 0.00 0.00 32 1000.0
20260503235204 80 233 7.0 17.0 0.00 0.00 0.00 33 1000.0
20260503234203 80 230 12.0 18.0 0.00 0.00 0.00 32 1000.0
20260503233704 80 231 8.0 13.0 0.00 0.00 0.00 33 1000.0
20260503233204 80 229 9.0 15.0 0.00 0.00 0.00 32 1000.0
20260503232703 80 226 9.0 21.0 0.00 0.00 0.00 31 1000.0
20260503231704 81 238 9.0 16.0 0.00 0.00 0.00 33 1000.0
20260503231204 81 223 13.0 20.0 0.00 0.00 0.00 31 1000.0
20260503230704 81 255 7.0 12.0 0.00 0.00 0.00 33 1000.0
20260503225704 81 227 10.0 17.0 0.00 0.00 0.00 32 1000.0
20260503224204 81 239 10.0 17.0 0.00 0.00 0.00 31 1000.0
20260503223704 81 230 12.0 23.0 0.00 0.00 0.00 32 1000.0
20260503223204 81 228 10.0 18.0 0.00 0.00 0.00 32 1000.0
20260503222204 81 234 10.0 16.0 0.00 0.00 0.00 32 1000.0
20260503221704 81 226 11.0 21.0 0.00 0.00 0.00 32 1000.0
20260503221203 81 219 11.0 16.0 0.00 0.00 0.00 33 1000.0
20260503220204 81 231 9.0 16.0 0.00 0.00 0.00 32 1000.0
20260503215704 81 223 10.0 22.0 0.00 0.00 0.00 34 1000.0
20260503215204 81 225 10.0 21.0 0.00 0.00 0.00 33 1000.0
20260503214704 81 232 10.0 20.0 0.00 0.00 0.00 33 1000.0
20260503214204 81 223 12.0 21.0 0.00 0.00 0.00 33 1000.0
20260503213704 80 220 13.0 23.0 0.00 0.00 0.00 32 1000.0
20260503213204 80 228 13.0 22.0 0.00 0.00 0.00 32 1000.0
20260503212703 80 217 14.0 23.0 0.00 0.00 0.00 32 1000.0
20260503212203 81 223 13.0 24.0 0.00 0.00 0.00 34 1000.0
20260503211703 81 216 13.0 22.0 0.00 0.00 0.00 32 1000.0
20260503211204 80 228 10.0 26.0 0.00 0.00 0.00 32 1000.0
20260503210703 80 220 17.0 26.0 0.00 0.00 0.00 31 1000.0
20260503205704 80 219 13.0 24.0 0.00 0.00 0.00 34 1000.0
20260503205204 80 219 16.0 29.0 0.00 0.00 0.00 33 1000.0
20260503204704 80 209 16.0 24.0 0.00 0.00 0.00 33 1000.0
20260503204203 80 226 13.0 23.0 0.00 0.00 0.00 34 1000.0
20260503203703 80 206 14.0 23.0 0.00 0.00 0.00 33 1000.0
20260503203204 79 210 17.0 26.0 0.00 0.00 0.00 32 1000.0
20260503202704 80 211 11.0 25.0 0.00 0.00 0.00 36 1000.0
20260503202204 80 207 15.0 26.0 0.00 0.00 0.00 34 1000.0
20260503201704 79 216 13.0 21.0 0.00 0.00 0.00 36 1000.0
20260503200704 79 224 14.0 25.0 0.00 0.00 0.00 37 1000.0
20260503200204 79 210 16.0 30.0 0.00 0.00 0.00 35 1000.0
20260503195703 79 217 12.0 24.0 0.00 0.00 0.00 38 1000.0
20260503195204 78 221 15.0 26.0 0.00 0.00 0.00 36 1000.0
20260503194203 78 210 16.0 24.0 0.00 0.00 0.00 37 1000.0
20260503193703 78 223 13.0 20.0 0.00 0.00 0.00 40 1000.0
20260503193204 77 222 15.0 25.0 0.00 0.00 0.00 39 1000.0
20260503191704 78 206 14.0 24.0 0.00 0.00 0.00 39 1000.0
20260503191204 77 203 14.0 25.0 0.00 0.00 0.00 38 1000.0
20260503190703 77 211 14.0 23.0 0.00 0.00 0.00 40 1000.0
20260503190203 76 220 14.0 24.0 0.00 0.00 0.00 40 1000.0
20260503185703 76 207 14.0 26.0 0.00 0.00 0.00 39 1000.0
20260503185203 76 208 17.0 26.0 0.00 0.00 0.00 40 1000.0
20260503184704 76 205 15.0 24.0 0.00 0.00 0.00 39 1000.0
20260503184204 76 219 11.0 18.0 0.00 0.00 0.00 40 1000.0
20260503183704 76 226 12.0 24.0 0.00 0.00 0.00 40 1000.0
20260503183203 75 202 14.0 21.0 0.00 0.00 0.00 39 1000.0
20260503182704 76 204 14.0 22.0 0.00 0.00 0.00 40 1000.0
20260503182204 76 206 12.0 24.0 0.00 0.00 0.00 39 1000.0
20260503181703 75 212 12.0 22.0 0.00 0.00 0.00 39 1000.0
20260503180704 75 217 14.0 22.0 0.00 0.00 0.00 39 1000.0
20260503180204 75 224 12.0 20.0 0.00 0.00 0.00 40 1000.0
20260503175704 74 229 11.0 23.0 0.00 0.00 0.00 39 1000.0
20260503174703 74 214 12.0 21.0 0.00 0.00 0.00 39 1000.0
20260503174203 73 210 16.0 22.0 0.00 0.00 0.00 40 1000.0
20260503173703 73 227 13.0 18.0 0.00 0.00 0.00 40 1000.0
20260503173204 73 211 11.0 20.0 0.00 0.00 0.00 39 1000.0
20260503172704 73 201 16.0 23.0 0.00 0.00 0.00 40 1000.0
20260503172224 73 206 14.0 21.0 0.00 0.00 0.00 41 1000.0
20260503171704 72 211 16.0 23.0 0.00 0.00 0.00 40 1000.0
20260503171203 72 200 16.0 28.0 0.00 0.00 0.00 40 1000.0
20260503170704 71 224 14.0 24.0 0.00 0.00 0.00 39 1000.0
20260503170203 71 212 14.0 20.0 0.00 0.00 0.00 39 1000.0
20260503160204 68 199 13.0 21.0 0.00 0.00 0.00 42 1000.0
20260503150703 64 216 12.0 20.0 0.00 0.00 0.00 44 1000.0
20260503150203 64 192 13.0 23.0 0.00 0.00 0.00 43 1000.0
20260503131204 54 194 9.0 17.0 0.00 0.00 0.00 61 1000.0
20260503130704 54 212 10.0 16.0 0.00 0.00 0.00 62 1000.0
20260503130204 53 210 11.0 14.0 0.00 0.00 0.00 62 1000.0
20260503110703 48 182 3.0 6.0 0.00 0.00 0.00 72 1000.0
20260503110204 48 187 5.0 6.0 0.00 0.00 0.00 72 1000.0
20260503090203 45 168 3.0 5.0 0.00 0.00 0.00 88 1000.0